Starlink 11130

operational
NORAD ID: 59950 Int'l Des: 2024-107 Owner: SPXS Country: US Constellation: starlink
LEOCIRCULAR

Über Starlink 11130

Beschreibung wird geladen...

Live-Position

3D-Globus wird geladen...

Nächste Überflüge

Höhenverlauf

Altitude vs Time

uPlot chart will show altitude changes over time

Zweizeiliger Elementsatz

1 59950U 24107F 26093.45459074 -.00009049 00000-0 -70018-4 0 9994
2 59950 53.1582 129.3260 0001828 68.7339 291.3874 15.69669057106030
Epoch: 3. Apr. 2026 • Age: 21 hours

Aktueller Status

Höhe 360.2 km
Geschwindigkeit 7.70 km/s
Subsatellitenpunkt 9.29°N, 6.88°W
Startdatum 5. Juni 2024
Alter 1.8 years
Typ internet

Technische Details

Klassifizierung Payload
Masse 960.00 kg
Trockenmasse 910.00 kg
Gesamtmasse 960.00 kg
Länge 0.30 m
Durchmesser 4.10 m
Spannweite 29.00 m
Form Box + pan
Hersteller SPXS
Bus-Typ Starlink V2MD
Phasenstatus In Orbit
Besitzer/Staat SPXS/US

Große Konstellationen

Loading constellations...